| time (UTC) | temp F | wind direction | speed MPH | gust MPH | rain 1hr in | rain 24hr in | rain mn in | humidity % | barometer mb |
| 20260505002502 | 79 | 254 | 6.0 | 17.0 | 0.00 | 0.00 | 0.00 | 61 | 1005.7 |
| 20260505002003 | 79 | 196 | 6.0 | 17.0 | 0.00 | 0.00 | 0.00 | 61 | 1005.7 |
| 20260505001506 | 79 | 202 | 4.0 | 19.0 | 0.00 | 0.00 | 0.00 | 61 | 1005.7 |
| 20260505001004 | 79 | 171 | 6.0 | 18.0 | 0.00 | 0.00 | 0.00 | 60 | 1005.9 |
| 20260505000503 | 79 | 286 | 5.0 | 16.0 | 0.00 | 0.00 | 0.00 | 60 | 1005.9 |
| 20260505000007 | 80 | 176 | 6.0 | 16.0 | 0.00 | 0.00 | 0.00 | 60 | 1005.8 |
| 20260504235502 | 80 | 194 | 7.0 | 15.0 | 0.00 | 0.00 | 0.00 | 60 | 1005.8 |
| 20260504235001 | 80 | 170 | 7.0 | 15.0 | 0.00 | 0.00 | 0.00 | 60 | 1005.7 |
| 20260504234001 | 80 | 208 | 7.0 | 18.0 | 0.00 | 0.00 | 0.00 | 59 | 1005.8 |
| 20260504233502 | 80 | 175 | 7.0 | 18.0 | 0.00 | 0.00 | 0.00 | 59 | 1005.9 |
| 20260504232503 | 80 | 199 | 5.0 | 19.0 | 0.00 | 0.00 | 0.00 | 59 | 1005.9 |
| 20260504232001 | 80 | 159 | 6.0 | 18.0 | 0.00 | 0.00 | 0.00 | 59 | 1005.9 |
| 20260504231505 | 80 | 159 | 4.0 | 15.0 | 0.00 | 0.00 | 0.00 | 59 | 1005.8 |
| 20260504231003 | 81 | 232 | 3.0 | 18.0 | 0.00 | 0.00 | 0.00 | 58 | 1005.9 |
| 20260504230501 | 81 | 165 | 4.0 | 23.0 | 0.00 | 0.00 | 0.00 | 58 | 1006.0 |
| 20260504230011 | 81 | 234 | 5.0 | 15.0 | 0.00 | 0.00 | 0.00 | 57 | 1006.2 |
| 20260504225502 | 82 | 202 | 8.0 | 15.0 | 0.00 | 0.00 | 0.00 | 57 | 1006.2 |
| 20260504225002 | 82 | 230 | 7.0 | 15.0 | 0.00 | 0.00 | 0.00 | 57 | 1006.2 |
| 20260504224002 | 82 | 66 | 4.0 | 14.0 | 0.00 | 0.00 | 0.00 | 57 | 1006.2 |
| 20260504223005 | 82 | 233 | 2.0 | 16.0 | 0.00 | 0.00 | 0.00 | 57 | 1006.3 |
| 20260504222001 | 82 | 196 | 7.0 | 15.0 | 0.00 | 0.00 | 0.00 | 56 | 1006.3 |
| 20260504221506 | 82 | 240 | 4.0 | 21.0 | 0.00 | 0.00 | 0.00 | 57 | 1006.3 |
| 20260504221001 | 82 | 144 | 5.0 | 21.0 | 0.00 | 0.00 | 0.00 | 56 | 1006.2 |
| 20260504220501 | 82 | 148 | 4.0 | 15.0 | 0.00 | 0.00 | 0.00 | 56 | 1006.3 |
| 20260504220013 | 82 | 189 | 5.0 | 18.0 | 0.00 | 0.00 | 0.00 | 57 | 1006.3 |
| 20260504215501 | 82 | 209 | 5.0 | 18.0 | 0.00 | 0.00 | 0.00 | 57 | 1006.4 |
| 20260504215001 | 82 | 140 | 6.0 | 18.0 | 0.00 | 0.00 | 0.00 | 56 | 1006.6 |
| 20260504214511 | 82 | 168 | 6.0 | 18.0 | 0.00 | 0.00 | 0.00 | 55 | 1006.7 |
| 20260504214001 | 82 | 175 | 7.0 | 15.0 | 0.00 | 0.00 | 0.00 | 55 | 1006.7 |
| 20260504213502 | 82 | 161 | 4.0 | 14.0 | 0.00 | 0.00 | 0.00 | 56 | 1006.9 |
| 20260504213008 | 82 | 176 | 4.0 | 11.0 | 0.00 | 0.00 | 0.00 | 57 | 1007.2 |
| 20260504211519 | 82 | 173 | 7.0 | 17.0 | 0.00 | 0.00 | 0.00 | 56 | 1007.0 |
| 20260504211002 | 82 | 171 | 6.0 | 16.0 | 0.00 | 0.00 | 0.00 | 56 | 1007.5 |
| 20260504210502 | 82 | 240 | 5.0 | 16.0 | 0.00 | 0.00 | 0.00 | 56 | 1007.5 |
| 20260504210007 | 82 | 238 | 5.0 | 15.0 | 0.00 | 0.00 | 0.00 | 56 | 1007.6 |
| 20260504205501 | 82 | 206 | 5.0 | 14.0 | 0.00 | 0.00 | 0.00 | 56 | 1007.7 |
| 20260504205001 | 82 | 209 | 5.0 | 19.0 | 0.00 | 0.00 | 0.00 | 56 | 1007.7 |
| 20260504204505 | 82 | 229 | 6.0 | 19.0 | 0.00 | 0.00 | 0.00 | 54 | 1007.8 |
| 20260504204001 | 82 | 246 | 5.0 | 15.0 | 0.00 | 0.00 | 0.00 | 56 | 1008.0 |
| 20260504203507 | 81 | 205 | 6.0 | 18.0 | 0.00 | 0.00 | 0.00 | 56 | 1008.1 |
| 20260504203007 | 82 | 215 | 6.0 | 18.0 | 0.00 | 0.00 | 0.00 | 54 | 1008.2 |
| 20260504202501 | 81 | 261 | 6.0 | 17.0 | 0.00 | 0.00 | 0.00 | 55 | 1008.1 |
| 20260504202005 | 81 | 171 | 4.0 | 15.0 | 0.00 | 0.00 | 0.00 | 55 | 1008.2 |
| 20260504201520 | 82 | 175 | 3.0 | 18.0 | 0.00 | 0.00 | 0.00 | 55 | 1008.4 |
| 20260504201001 | 81 | 174 | 4.0 | 16.0 | 0.00 | 0.00 | 0.00 | 55 | 1008.6 |
| 20260504200502 | 81 | 257 | 5.0 | 16.0 | 0.00 | 0.00 | 0.00 | 55 | 1008.8 |
| 20260504195006 | 81 | 236 | 7.0 | 13.0 | 0.00 | 0.00 | 0.00 | 54 | 1009.1 |
| 20260504194000 | 81 | 234 | 5.0 | 17.0 | 0.00 | 0.00 | 0.00 | 54 | 1009.0 |
| 20260504193500 | 81 | 190 | 4.0 | 18.0 | 0.00 | 0.00 | 0.00 | 56 | 1009.3 |
| 20260504193004 | 81 | 196 | 6.0 | 18.0 | 0.00 | 0.00 | 0.00 | 54 | 1009.3 |
| 20260504192001 | 80 | 170 | 6.0 | 17.0 | 0.00 | 0.00 | 0.00 | 55 | 1009.4 |
| 20260504191505 | 80 | 181 | 8.0 | 17.0 | 0.00 | 0.00 | 0.00 | 54 | 1009.5 |
| 20260504190005 | 79 | 195 | 3.0 | 18.0 | 0.00 | 0.00 | 0.00 | 57 | 1009.9 |
| 20260504185505 | 79 | 233 | 7.0 | 18.0 | 0.00 | 0.00 | 0.00 | 55 | 1010.0 |
| 20260504185002 | 79 | 209 | 7.0 | 18.0 | 0.00 | 0.00 | 0.00 | 55 | 1010.0 |
| 20260504184512 | 79 | 138 | 3.0 | 16.0 | 0.00 | 0.00 | 0.00 | 56 | 1010.0 |
| 20260504184001 | 79 | 219 | 6.0 | 17.0 | 0.00 | 0.00 | 0.00 | 55 | 1010.1 |
| 20260504183504 | 79 | 194 | 8.0 | 17.0 | 0.00 | 0.00 | 0.00 | 55 | 1010.1 |
| 20260504183005 | 79 | 201 | 3.0 | 17.0 | 0.00 | 0.00 | 0.00 | 57 | 1010.3 |
| 20260504182504 | 78 | 196 | 6.0 | 17.0 | 0.00 | 0.00 | 0.00 | 55 | 1010.4 |
| 20260504181002 | 78 | 226 | 5.0 | 14.0 | 0.00 | 0.00 | 0.00 | 56 | 1010.6 |
| 20260504175501 | 78 | 227 | 3.0 | 19.0 | 0.00 | 0.00 | 0.00 | 55 | 1010.8 |
| 20260504175002 | 78 | 119 | 6.0 | 19.0 | 0.00 | 0.00 | 0.00 | 55 | 1010.6 |
| 20260504174509 | 78 | 197 | 8.0 | 16.0 | 0.00 | 0.00 | 0.00 | 56 | 1010.6 |
| 20260504174002 | 78 | 164 | 5.0 | 22.0 | 0.00 | 0.00 | 0.00 | 57 | 1010.9 |
| 20260504173500 | 77 | 244 | 7.0 | 22.0 | 0.00 | 0.00 | 0.00 | 56 | 1011.1 |
| 20260504173004 | 77 | 182 | 8.0 | 15.0 | 0.00 | 0.00 | 0.00 | 56 | 1011.2 |
| 20260504172500 | 77 | 225 | 5.0 | 18.0 | 0.00 | 0.00 | 0.00 | 57 | 1011.3 |
| 20260504172001 | 76 | 217 | 8.0 | 18.0 | 0.00 | 0.00 | 0.00 | 56 | 1011.3 |
| 20260504171506 | 76 | 219 | 6.0 | 16.0 | 0.00 | 0.00 | 0.00 | 56 | 1011.4 |
| 20260504171000 | 76 | 186 | 8.0 | 16.0 | 0.00 | 0.00 | 0.00 | 56 | 1011.4 |
| 20260504170503 | 76 | 210 | 6.0 | 19.0 | 0.00 | 0.00 | 0.00 | 56 | 1011.4 |
| 20260504151000 | 71 | 226 | 5.0 | 21.0 | 0.00 | 0.00 | 0.00 | 65 | 1012.7 |
| 20260504150501 | 70 | 161 | 6.0 | 21.0 | 0.00 | 0.00 | 0.00 | 65 | 1012.9 |
| 20260504140500 | 67 | 142 | 6.0 | 18.0 | 0.00 | 0.00 | 0.00 | 69 | 1013.0 |
| 20260504130500 | 65 | 193 | 2.0 | 10.0 | 0.00 | 0.00 | 0.00 | 72 | 1013.3 |
| 20260504110459 | 63 | 190 | 1.0 | 6.0 | 0.00 | 0.00 | 0.00 | 72 | 1012.8 |
| 20260504100500 | 65 | 220 | 1.0 | 9.0 | 0.00 | 0.00 | 0.00 | 66 | 1013.2 |
| 20260504081958 | 67 | 163 | 2.0 | 10.0 | 0.00 | 0.00 | 0.00 | 58 | 1013.5 |
| 20260504081505 | 67 | 153 | 3.0 | 10.0 | 0.00 | 0.00 | 0.00 | 58 | 1013.5 |
| 20260504080958 | 67 | 210 | 2.0 | 9.0 | 0.00 | 0.00 | 0.00 | 56 | 1013.7 |
| 20260504080458 | 67 | 247 | 3.0 | 9.0 | 0.00 | 0.00 | 0.00 | 56 | 1013.8 |
| 20260504050504 | 69 | 209 | 0.0 | 4.0 | 0.00 | 0.00 | 0.00 | 53 | 1015.7 |
| 20260504050012 | 69 | 209 | 1.0 | 4.0 | 0.00 | 0.00 | 0.00 | 53 | 1015.7 |
| 20260504045503 | 69 | 209 | 0.0 | 3.0 | 0.00 | 0.00 | 0.00 | 53 | 1015.7 |
| 20260504045003 | 69 | 209 | 0.0 | 3.0 | 0.00 | 0.00 | 0.00 | 52 | 1015.8 |
| 20260504044507 | 69 | 209 | 0.0 | 2.0 | 0.00 | 0.00 | 0.00 | 52 | 1015.8 |
| 20260504043503 | 70 | 209 | 0.0 | 4.0 | 0.00 | 0.00 | 0.00 | 51 | 1015.9 |
| 20260504042503 | 70 | 208 | 0.0 | 7.0 | 0.00 | 0.00 | 0.00 | 51 | 1016.0 |
| 20260504042003 | 70 | 208 | 1.0 | 8.0 | 0.00 | 0.00 | 0.00 | 51 | 1015.9 |
| 20260504041507 | 70 | 198 | 1.0 | 4.0 | 0.00 | 0.00 | 0.00 | 51 | 1016.0 |
| 20260504041004 | 70 | 198 | 1.0 | 5.0 | 0.00 | 0.00 | 0.00 | 50 | 1016.0 |
| 20260504040008 | 71 | 194 | 1.0 | 7.0 | 0.00 | 0.00 | 0.00 | 50 | 1015.9 |
| 20260504035504 | 71 | 161 | 1.0 | 7.0 | 0.00 | 0.00 | 0.00 | 50 | 1015.9 |
| 20260504035003 | 71 | 192 | 1.0 | 6.0 | 0.00 | 0.00 | 0.00 | 50 | 1015.9 |
| 20260504034506 | 71 | 192 | 1.0 | 6.0 | 0.00 | 0.00 | 0.00 | 49 | 1015.9 |
| 20260504034003 | 71 | 204 | 0.0 | 4.0 | 0.00 | 0.00 | 0.00 | 49 | 1015.9 |
| 20260504033503 | 71 | 204 | 1.0 | 4.0 | 0.00 | 0.00 | 0.00 | 49 | 1015.9 |
| 20260504033007 | 71 | 203 | 0.0 | 5.0 | 0.00 | 0.00 | 0.00 | 48 | 1015.8 |
| 20260504032002 | 72 | 198 | 1.0 | 5.0 | 0.00 | 0.00 | 0.00 | 47 | 1015.9 |
| 20260504031521 | 72 | 187 | 1.0 | 6.0 | 0.00 | 0.00 | 0.00 | 46 | 1015.8 |
| 20260504031003 | 72 | 186 | 0.0 | 6.0 | 0.00 | 0.00 | 0.00 | 45 | 1015.8 |
| 20260504030502 | 72 | 177 | 2.0 | 5.0 | 0.00 | 0.00 | 0.00 | 45 | 1015.8 |
| 20260504030010 | 72 | 205 | 1.0 | 5.0 | 0.00 | 0.00 | 0.00 | 44 | 1015.7 |
| 20260504025503 | 72 | 196 | 1.0 | 6.0 | 0.00 | 0.00 | 0.00 | 43 | 1015.7 |
| 20260504025003 | 73 | 195 | 1.0 | 6.0 | 0.00 | 0.00 | 0.00 | 43 | 1015.5 |
| 20260504024002 | 73 | 176 | 1.0 | 10.0 | 0.00 | 0.00 | 0.00 | 41 | 1015.6 |
| 20260504023503 | 74 | 184 | 2.0 | 10.0 | 0.00 | 0.00 | 0.00 | 41 | 1015.6 |
| 20260504023008 | 74 | 175 | 1.0 | 5.0 | 0.00 | 0.00 | 0.00 | 41 | 1015.6 |
| 20260504022504 | 74 | 171 | 1.0 | 7.0 | 0.00 | 0.00 | 0.00 | 40 | 1015.7 |
| 20260504022003 | 74 | 232 | 1.0 | 10.0 | 0.00 | 0.00 | 0.00 | 40 | 1015.6 |
| 20260504021506 | 74 | 187 | 3.0 | 9.0 | 0.00 | 0.00 | 0.00 | 40 | 1015.6 |
| 20260504021003 | 75 | 207 | 1.0 | 9.0 | 0.00 | 0.00 | 0.00 | 40 | 1015.5 |
| 20260504020503 | 75 | 186 | 1.0 | 9.0 | 0.00 | 0.00 | 0.00 | 40 | 1015.6 |
| 20260504020010 | 75 | 210 | 1.0 | 11.0 | 0.00 | 0.00 | 0.00 | 40 | 1015.6 |
| 20260504015504 | 75 | 255 | 5.0 | 11.0 | 0.00 | 0.00 | 0.00 | 39 | 1015.5 |
| 20260504015003 | 75 | 192 | 3.0 | 8.0 | 0.00 | 0.00 | 0.00 | 39 | 1015.4 |
| 20260504014506 | 75 | 180 | 2.0 | 9.0 | 0.00 | 0.00 | 0.00 | 39 | 1015.4 |
| 20260504013504 | 75 | 197 | 1.0 | 6.0 | 0.00 | 0.00 | 0.00 | 38 | 1015.3 |
| 20260504012504 | 76 | 161 | 2.0 | 7.0 | 0.00 | 0.00 | 0.00 | 38 | 1015.2 |
| 20260504012003 | 76 | 240 | 1.0 | 7.0 | 0.00 | 0.00 | 0.00 | 38 | 1015.2 |
| 20260504011507 | 76 | 211 | 1.0 | 6.0 | 0.00 | 0.00 | 0.00 | 38 | 1015.2 |
| 20260504011002 | 76 | 153 | 2.0 | 8.0 | 0.00 | 0.00 | 0.00 | 38 | 1015.1 |
| 20260504010008 | 76 | 215 | 1.0 | 6.0 | 0.00 | 0.00 | 0.00 | 38 | 1015.1 |
| 20260504005502 | 77 | 183 | 1.0 | 8.0 | 0.00 | 0.00 | 0.00 | 38 | 1015.0 |
| 20260504005003 | 77 | 190 | 1.0 | 10.0 | 0.00 | 0.00 | 0.00 | 37 | 1014.9 |
| 20260504004507 | 77 | 183 | 3.0 | 10.0 | 0.00 | 0.00 | 0.00 | 36 | 1015.0 |
| 20260504004003 | 78 | 184 | 2.0 | 10.0 | 0.00 | 0.00 | 0.00 | 36 | 1015.0 |
| 20260504003006 | 78 | 196 | 3.0 | 9.0 | 0.00 | 0.00 | 0.00 | 35 | 1015.1 |